Starlink 4043

operational
NORAD ID: 52836 Int'l Des: 2022-062 Owner: SPXS Country: US Constellation: starlink
LEOCIRCULAR

关于 Starlink 4043

正在加载描述...

实时位置

正在加载3D地球...

即将过境

高度历史

Altitude vs Time

uPlot chart will show altitude changes over time

两行轨道根数

1 52836U 22062G 25304.15239404 -.00004441 00000-0 -26109-3 0 9994
2 52836 53.2163 255.9532 0001346 104.5494 255.5648 15.08844754186228
Epoch: Oct 31, 2025 • Age: 16 hours

当前状态

高度 556.6 km
速度 7.58 km/s
星下点 -46.59°S, 128.16°W
发射日期 Jun 17, 2022
运行时间 3.3 years
类型 internet

技术详情

分类 Payload
质量 297.00 kg
干质量 275.00 kg
总质量 297.00 kg
长度 0.20 m
直径 2.80 m
跨度 9.00 m
形状 Box + pan
制造商 SPXS
平台类型 Starlink
阶段状态 In Orbit
所有者/国家 SPXS/US

大型星座

Loading constellations...